Time,TemperatureF,DewpointF,PressureIn,WindDirection,WindDirectionDegrees,WindSpeedMPH,WindSpeedGustMPH,Humidity,HourlyPrecipIn,Conditions,Clouds,dailyrainin,SoftwareType,DateUTC
2013-05-09 00:01:00,52.0,52.0,30.28,SE,135,1.0,8.0,100,0.00,,,0.00,Weather View 32 v70,2013-05-09 04:01:00,
2013-05-09 00:06:00,52.0,52.0,30.28,SSE,157,5.0,8.0,100,0.00,,,0.00,Weather View 32 v70,2013-05-09 04:06:00,
2013-05-09 00:11:00,52.0,52.0,30.28,ESE,112,1.0,8.0,100,0.00,,,0.00,Weather View 32 v70,2013-05-09 04:11:00,
2013-05-09 00:16:00,51.0,51.0,30.28,SSW,202,4.0,8.0,100,0.00,,,0.00,Weather View 32 v70,2013-05-09 04:16:00,
2013-05-09 00:21:00,51.0,51.0,30.27,ESE,112,0.0,8.0,100,0.00,,,0.00,Weather View 32 v70,2013-05-09 04:21:00,
2013-05-09 00:26:00,51.0,51.0,30.27,ESE,112,1.0,8.0,100,0.00,,,0.00,Weather View 32 v70,2013-05-09 04:26:00,
2013-05-09 00:31:00,51.0,51.0,30.27,SE,135,5.0,8.0,100,0.00,,,0.00,Weather View 32 v70,2013-05-09 04:31:00,
2013-05-09 00:36:00,51.0,51.0,30.26,SSE,157,1.0,6.0,100,0.00,,,0.00,Weather View 32 v70,2013-05-09 04:36:00,
2013-05-09 00:41:00,51.0,51.0,30.26,ESE,112,4.0,6.0,100,0.00,,,0.00,Weather View 32 v70,2013-05-09 04:41:00,
2013-05-09 00:46:00,51.0,51.0,30.26,SE,135,4.0,6.0,100,0.00,,,0.00,Weather View 32 v70,2013-05-09 04:46:00,
2013-05-09 00:51:00,51.0,51.0,30.26,SSE,157,7.0,7.0,100,0.00,,,0.00,Weather View 32 v70,2013-05-09 04:51:00,
2013-05-09 00:56:00,51.0,51.0,30.25,ESE,112,1.0,7.0,100,0.00,,,0.00,Weather View 32 v70,2013-05-09 04:56:00,
2013-05-09 01:01:00,51.0,51.0,30.24,NNE,22,0.0,7.0,100,0.00,,,0.00,Weather View 32 v70,2013-05-09 05:01:00,
2013-05-09 01:06:00,51.0,51.0,30.26,ESE,112,0.0,7.0,100,0.00,,,0.00,Weather View 32 v70,2013-05-09 05:06:00,
2013-05-09 01:11:00,51.0,51.0,30.23,SSE,157,0.0,7.0,100,0.00,,,0.00,Weather View 32 v70,2013-05-09 05:11:00,
2013-05-09 01:16:00,51.0,51.0,30.25,SE,135,4.0,7.0,100,0.00,,,0.00,Weather View 32 v70,2013-05-09 05:16:00,
2013-05-09 01:21:00,51.0,51.0,30.24,SE,135,2.0,7.0,100,0.00,,,0.00,Weather View 32 v70,2013-05-09 05:21:00,
2013-05-09 01:26:00,51.0,50.7,30.25,ESE,112,3.0,7.0,99,0.00,,,0.00,Weather View 32 v70,2013-05-09 05:26:00,
2013-05-09 01:31:00,51.0,50.7,30.25,SSE,157,3.0,7.0,99,0.00,,,0.00,Weather View 32 v70,2013-05-09 05:31:00,
2013-05-09 01:36:00,51.0,50.7,30.25,SE,135,2.0,7.0,99,0.00,,,0.00,Weather View 32 v70,2013-05-09 05:36:00,
2013-05-09 01:41:00,51.0,50.7,30.26,SSE,157,0.0,7.0,99,0.00,,,0.00,Weather View 32 v70,2013-05-09 05:41:00,
2013-05-09 01:46:00,52.0,51.7,30.24,South,180,3.0,7.0,99,0.00,,,0.00,Weather View 32 v70,2013-05-09 05:46:00,
2013-05-09 01:51:00,52.0,51.7,30.24,SSE,157,3.0,7.0,99,0.00,,,0.00,Weather View 32 v70,2013-05-09 05:51:00,
2013-05-09 01:56:00,52.0,51.7,30.24,SSE,157,0.0,6.0,99,0.00,,,0.00,Weather View 32 v70,2013-05-09 05:56:00,
2013-05-09 02:01:00,52.0,51.7,30.24,SE,135,3.0,6.0,99,0.00,,,0.00,Weather View 32 v70,2013-05-09 06:01:00,
2013-05-09 02:06:00,52.0,51.7,30.24,SSE,157,0.0,6.0,99,0.00,,,0.00,Weather View 32 v70,2013-05-09 06:06:00,
2013-05-09 02:11:00,52.0,51.5,30.23,ESE,112,3.0,6.0,98,0.00,,,0.00,Weather View 32 v70,2013-05-09 06:11:00,
2013-05-09 02:16:00,52.0,51.5,30.23,SSE,157,2.0,6.0,98,0.00,,,0.00,Weather View 32 v70,2013-05-09 06:16:00,
2013-05-09 02:21:00,52.0,51.5,30.23,SSE,157,7.0,7.0,98,0.00,,,0.00,Weather View 32 v70,2013-05-09 06:21:00,
2013-05-09 02:26:00,52.0,51.5,30.23,SE,135,6.0,8.0,98,0.00,,,0.00,Weather View 32 v70,2013-05-09 06:26:00,
2013-05-09 02:31:00,52.0,51.5,30.23,SSE,157,6.0,8.0,98,0.00,,,0.00,Weather View 32 v70,2013-05-09 06:31:00,
2013-05-09 02:36:00,52.0,51.2,30.23,SE,135,6.0,8.0,97,0.00,,,0.00,Weather View 32 v70,2013-05-09 06:36:00,
2013-05-09 02:41:00,52.0,51.2,30.23,ENE,67,2.0,8.0,97,0.00,,,0.00,Weather View 32 v70,2013-05-09 06:41:00,
2013-05-09 02:46:00,52.0,51.2,30.22,SE,135,6.0,8.0,97,0.00,,,0.00,Weather View 32 v70,2013-05-09 06:46:00,
2013-05-09 02:51:00,52.0,51.2,30.22,SE,135,3.0,8.0,97,0.00,,,0.00,Weather View 32 v70,2013-05-09 06:51:00,
2013-05-09 02:56:00,52.0,51.2,30.20,SE,135,3.0,8.0,97,0.00,,,0.00,Weather View 32 v70,2013-05-09 06:56:00,
2013-05-09 03:01:00,52.0,51.2,30.22,SSW,202,2.0,8.0,97,0.00,,,0.00,Weather View 32 v70,2013-05-09 07:01:00,
2013-05-09 03:06:00,52.0,51.2,30.22,SE,135,2.0,8.0,97,0.00,,,0.00,Weather View 32 v70,2013-05-09 07:06:00,
2013-05-09 03:11:00,52.0,51.2,30.22,SE,135,2.0,8.0,97,0.00,,,0.00,Weather View 32 v70,2013-05-09 07:11:00,
2013-05-09 03:16:00,52.0,51.2,30.22,ESE,112,7.0,8.0,97,0.00,,,0.00,Weather View 32 v70,2013-05-09 07:16:00,
2013-05-09 03:21:00,52.0,51.2,30.22,South,180,3.0,8.0,97,0.00,,,0.00,Weather View 32 v70,2013-05-09 07:21:00,
2013-05-09 03:26:00,52.0,51.2,30.21,SSE,157,3.0,8.0,97,0.00,,,0.00,Weather View 32 v70,2013-05-09 07:26:00,
2013-05-09 03:31:00,52.0,51.2,30.21,SW,225,0.0,8.0,97,0.00,,,0.00,Weather View 32 v70,2013-05-09 07:31:00,
2013-05-09 03:36:00,52.0,51.2,30.21,East,90,1.0,8.0,97,0.00,,,0.00,Weather View 32 v70,2013-05-09 07:36:00,
2013-05-09 03:41:00,52.0,51.2,30.21,ESE,112,2.0,9.0,97,0.00,,,0.00,Weather View 32 v70,2013-05-09 07:41:00,
2013-05-09 03:46:00,52.0,51.2,30.20,SSE,157,5.0,9.0,97,0.00,,,0.00,Weather View 32 v70,2013-05-09 07:46:00,
2013-05-09 03:51:00,52.0,51.2,30.20,SSE,157,3.0,9.0,97,0.00,,,0.00,Weather View 32 v70,2013-05-09 07:51:00,
2013-05-09 03:56:00,52.0,51.2,30.20,South,180,0.0,9.0,97,0.00,,,0.00,Weather View 32 v70,2013-05-09 07:56:00,
2013-05-09 04:01:00,52.0,51.2,30.20,SSW,202,1.0,9.0,97,0.00,,,0.00,Weather View 32 v70,2013-05-09 08:01:00,
2013-05-09 04:06:00,52.0,51.2,30.20,SW,225,3.0,9.0,97,0.00,,,0.00,Weather View 32 v70,2013-05-09 08:06:00,
2013-05-09 04:11:00,52.0,51.2,30.20,South,180,2.0,9.0,97,0.00,,,0.00,Weather View 32 v70,2013-05-09 08:11:00,
2013-05-09 04:16:00,52.0,51.2,30.20,SE,135,5.0,9.0,97,0.00,,,0.00,Weather View 32 v70,2013-05-09 08:16:00,
2013-05-09 04:21:00,52.0,51.2,30.20,SSE,157,0.0,9.0,97,0.00,,,0.00,Weather View 32 v70,2013-05-09 08:21:00,
2013-05-09 04:26:00,53.0,52.2,30.20,SE,135,0.0,9.0,97,0.00,,,0.00,Weather View 32 v70,2013-05-09 08:26:00,
2013-05-09 04:31:00,53.0,52.2,30.21,ESE,112,3.0,9.0,97,0.00,,,0.00,Weather View 32 v70,2013-05-09 08:31:00,
2013-05-09 04:36:00,53.0,52.2,30.21,SSW,202,4.0,9.0,97,0.00,,,0.00,Weather View 32 v70,2013-05-09 08:36:00,
2013-05-09 04:41:00,53.0,52.2,30.21,SSE,157,0.0,7.0,97,0.00,,,0.00,Weather View 32 v70,2013-05-09 08:41:00,
2013-05-09 04:46:00,53.0,52.2,30.20,SE,135,2.0,7.0,97,0.00,,,0.00,Weather View 32 v70,2013-05-09 08:46:00,
2013-05-09 04:51:00,53.0,51.9,30.20,SSE,157,4.0,7.0,96,0.00,,,0.00,Weather View 32 v70,2013-05-09 08:51:00,
2013-05-09 04:56:00,53.0,51.9,30.20,South,180,3.0,7.0,96,0.00,,,0.00,Weather View 32 v70,2013-05-09 08:56:00,
2013-05-09 05:01:00,53.0,51.9,30.20,SE,135,4.0,7.0,96,0.00,,,0.00,Weather View 32 v70,2013-05-09 09:01:00,
2013-05-09 05:06:00,53.0,51.9,30.18,SE,135,8.0,8.0,96,0.00,,,0.00,Weather View 32 v70,2013-05-09 09:06:00,
2013-05-09 05:11:00,53.0,51.9,30.19,ESE,112,0.0,9.0,96,0.00,,,0.00,Weather View 32 v70,2013-05-09 09:11:00,
2013-05-09 05:16:00,53.0,51.9,30.20,SSE,157,1.0,9.0,96,0.00,,,0.00,Weather View 32 v70,2013-05-09 09:16:00,
2013-05-09 05:21:00,53.0,51.9,30.19,SE,135,0.0,9.0,96,0.00,,,0.00,Weather View 32 v70,2013-05-09 09:21:00,
2013-05-09 05:26:00,53.0,51.9,30.19,SE,135,2.0,9.0,96,0.00,,,0.00,Weather View 32 v70,2013-05-09 09:26:00,
2013-05-09 05:31:00,53.0,51.9,30.19,SE,135,4.0,9.0,96,0.00,,,0.00,Weather View 32 v70,2013-05-09 09:31:00,
2013-05-09 05:36:00,53.0,51.9,30.19,SE,135,5.0,9.0,96,0.00,,,0.00,Weather View 32 v70,2013-05-09 09:36:00,
2013-05-09 05:41:00,53.0,51.9,30.19,South,180,2.0,9.0,96,0.00,,,0.00,Weather View 32 v70,2013-05-09 09:41:00,
2013-05-09 05:46:00,53.0,51.9,30.19,SSE,157,3.0,9.0,96,0.00,,,0.00,Weather View 32 v70,2013-05-09 09:46:00,
2013-05-09 05:51:00,53.0,51.6,30.19,SSE,157,7.0,9.0,95,0.00,,,0.00,Weather View 32 v70,2013-05-09 09:51:00,
2013-05-09 05:56:00,53.0,51.6,30.19,SSE,157,6.0,9.0,95,0.00,,,0.00,Weather View 32 v70,2013-05-09 09:56:00,
2013-05-09 06:01:00,53.0,51.6,30.19,South,180,6.0,9.0,95,0.00,,,0.00,Weather View 32 v70,2013-05-09 10:01:00,
2013-05-09 06:06:00,53.0,51.6,30.20,SE,135,8.0,10.0,95,0.00,,,0.00,Weather View 32 v70,2013-05-09 10:06:00,
2013-05-09 06:11:00,53.0,51.6,30.19,SSW,202,3.0,10.0,95,0.00,,,0.00,Weather View 32 v70,2013-05-09 10:11:00,
2013-05-09 06:16:00,53.0,51.6,30.20,SSE,157,6.0,10.0,95,0.00,,,0.00,Weather View 32 v70,2013-05-09 10:16:00,
2013-05-09 06:21:00,53.0,51.6,30.19,SE,135,2.0,10.0,95,0.00,,,0.00,Weather View 32 v70,2013-05-09 10:21:00,
2013-05-09 06:26:00,53.0,51.6,30.19,SSE,157,3.0,10.0,95,0.00,,,0.00,Weather View 32 v70,2013-05-09 10:26:00,
2013-05-09 06:31:00,54.0,52.9,30.18,SE,135,3.0,10.0,96,0.00,,,0.00,Weather View 32 v70,2013-05-09 10:31:00,
2013-05-09 06:36:00,53.0,51.6,30.19,SSE,157,5.0,11.0,95,0.00,,,0.00,Weather View 32 v70,2013-05-09 10:36:00,
2013-05-09 06:41:00,53.0,51.6,30.19,SE,135,10.0,11.0,95,0.00,,,0.00,Weather View 32 v70,2013-05-09 10:41:00,
2013-05-09 06:46:00,53.0,51.9,30.18,SE,135,7.0,13.0,96,0.00,,,0.00,Weather View 32 v70,2013-05-09 10:46:00,
2013-05-09 06:51:00,53.0,51.9,30.18,SSE,157,4.0,13.0,96,0.00,,,0.00,Weather View 32 v70,2013-05-09 10:51:00,
2013-05-09 06:56:00,53.0,51.9,30.18,SSE,157,5.0,13.0,96,0.00,,,0.00,Weather View 32 v70,2013-05-09 10:56:00,
2013-05-09 07:01:00,53.0,51.9,30.18,SE,135,4.0,13.0,96,0.00,,,0.00,Weather View 32 v70,2013-05-09 11:01:00,
2013-05-09 07:06:00,53.0,52.2,30.18,SSE,157,8.0,13.0,97,0.00,,,0.00,Weather View 32 v70,2013-05-09 11:06:00,
2013-05-09 07:11:00,53.0,52.2,30.18,SE,135,2.0,13.0,97,0.00,,,0.00,Weather View 32 v70,2013-05-09 11:11:00,
2013-05-09 07:16:00,53.0,52.2,30.18,SSE,157,4.0,13.0,97,0.00,,,0.00,Weather View 32 v70,2013-05-09 11:16:00,
2013-05-09 07:21:00,53.0,52.2,30.18,ESE,112,4.0,13.0,97,0.01,,,0.02,Weather View 32 v70,2013-05-09 11:21:00,
2013-05-09 07:26:00,53.0,52.2,30.19,SE,135,4.0,13.0,97,0.03,,,0.03,Weather View 32 v70,2013-05-09 11:26:00,
2013-05-09 07:31:00,53.0,52.2,30.19,WSW,247,0.0,13.0,97,0.04,,,0.05,Weather View 32 v70,2013-05-09 11:31:00,
2013-05-09 07:36:00,53.0,52.2,30.20,SW,225,1.0,13.0,97,0.05,,,0.05,Weather View 32 v70,2013-05-09 11:36:00,
2013-05-09 07:41:00,53.0,52.2,30.20,SW,225,4.0,13.0,97,0.05,,,0.05,Weather View 32 v70,2013-05-09 11:41:00,
2013-05-09 07:46:00,53.0,52.4,30.20,SSE,157,4.0,11.0,98,0.06,,,0.06,Weather View 32 v70,2013-05-09 11:46:00,
2013-05-09 07:51:00,53.0,52.4,30.20,SSW,202,3.0,11.0,98,0.06,,,0.06,Weather View 32 v70,2013-05-09 11:51:00,
2013-05-09 07:56:00,53.0,52.7,30.20,SSE,157,1.0,10.0,99,0.09,,,0.10,Weather View 32 v70,2013-05-09 11:56:00,
2013-05-09 08:01:00,53.0,52.4,30.20,SSW,202,1.0,10.0,98,0.11,,,0.12,Weather View 32 v70,2013-05-09 12:01:00,
2013-05-09 08:06:00,53.0,52.7,30.20,SE,135,7.0,10.0,99,0.15,,,0.16,Weather View 32 v70,2013-05-09 12:06:00,
2013-05-09 08:11:00,52.0,52.0,30.21,SE,135,1.0,8.0,100,0.20,,,0.21,Weather View 32 v70,2013-05-09 12:11:00,
2013-05-09 08:16:00,52.0,52.0,30.21,SE,135,6.0,7.0,100,0.25,,,0.26,Weather View 32 v70,2013-05-09 12:16:00,
2013-05-09 08:21:00,52.0,52.0,30.20,SE,135,7.0,7.0,100,0.33,,,0.35,Weather View 32 v70,2013-05-09 12:21:00,
2013-05-09 08:26:00,52.0,52.0,30.20,SE,135,6.0,7.0,100,0.33,,,0.37,Weather View 32 v70,2013-05-09 12:26:00,
2013-05-09 08:31:00,52.0,52.0,30.20,SE,135,5.0,7.0,100,0.33,,,0.37,Weather View 32 v70,2013-05-09 12:31:00,
2013-05-09 08:36:00,52.0,52.0,30.20,SE,135,4.0,9.0,100,0.33,,,0.39,Weather View 32 v70,2013-05-09 12:36:00,
2013-05-09 08:41:00,52.0,52.0,30.20,East,90,5.0,9.0,100,0.38,,,0.44,Weather View 32 v70,2013-05-09 12:41:00,
2013-05-09 08:46:00,52.0,52.0,30.19,SSE,157,6.0,9.0,100,0.40,,,0.46,Weather View 32 v70,2013-05-09 12:46:00,
2013-05-09 08:51:00,52.0,52.0,30.19,SE,135,3.0,9.0,100,0.41,,,0.47,Weather View 32 v70,2013-05-09 12:51:00,
2013-05-09 08:56:00,52.0,52.0,30.19,SSE,157,6.0,9.0,100,0.39,,,0.48,Weather View 32 v70,2013-05-09 12:56:00,
2013-05-09 09:01:00,53.0,53.0,30.19,SE,135,1.0,9.0,100,0.37,,,0.48,Weather View 32 v70,2013-05-09 13:01:00,
2013-05-09 09:06:00,53.0,53.0,30.20,SE,135,3.0,9.0,100,0.33,,,0.48,Weather View 32 v70,2013-05-09 13:06:00,
2013-05-09 09:11:00,53.0,53.0,30.19,SSE,157,7.0,9.0,100,0.29,,,0.49,Weather View 32 v70,2013-05-09 13:11:00,
2013-05-09 09:16:00,53.0,53.0,30.19,South,180,3.0,9.0,100,0.24,,,0.49,Weather View 32 v70,2013-05-09 13:16:00,
2013-05-09 09:21:00,53.0,53.0,30.20,SE,135,8.0,9.0,100,0.16,,,0.50,Weather View 32 v70,2013-05-09 13:21:00,
2013-05-09 09:26:00,53.0,53.0,30.19,SSW,202,1.0,9.0,100,0.14,,,0.50,Weather View 32 v70,2013-05-09 13:26:00,
2013-05-09 09:31:00,53.0,53.0,30.18,SSW,202,2.0,9.0,100,0.14,,,0.51,Weather View 32 v70,2013-05-09 13:31:00,
2013-05-09 09:36:00,53.0,53.0,30.18,South,180,4.0,9.0,100,0.15,,,0.54,Weather View 32 v70,2013-05-09 13:36:00,
2013-05-09 09:41:00,53.0,53.0,30.18,SSE,157,6.0,9.0,100,0.14,,,0.58,Weather View 32 v70,2013-05-09 13:41:00,
2013-05-09 09:46:00,53.0,53.0,30.18,East,90,6.0,9.0,100,0.17,,,0.64,Weather View 32 v70,2013-05-09 13:46:00,
2013-05-09 09:51:00,53.0,53.0,30.17,NE,45,5.0,9.0,100,0.20,,,0.67,Weather View 32 v70,2013-05-09 13:51:00,
2013-05-09 09:56:00,53.0,53.0,30.16,ESE,112,4.0,10.0,100,0.21,,,0.69,Weather View 32 v70,2013-05-09 13:56:00,
2013-05-09 10:01:00,53.0,53.0,30.16,East,90,4.0,11.0,100,0.21,,,0.70,Weather View 32 v70,2013-05-09 14:01:00,
2013-05-09 10:06:00,53.0,53.0,30.15,East,90,6.0,12.0,100,0.22,,,0.70,Weather View 32 v70,2013-05-09 14:06:00,
2013-05-09 10:11:00,53.0,53.0,30.15,East,90,2.0,12.0,100,0.21,,,0.70,Weather View 32 v70,2013-05-09 14:11:00,
2013-05-09 10:16:00,54.0,54.0,30.16,SE,135,7.0,12.0,100,0.21,,,0.70,Weather View 32 v70,2013-05-09 14:16:00,
2013-05-09 10:21:00,54.0,54.0,30.14,South,180,6.0,12.0,100,0.20,,,0.70,Weather View 32 v70,2013-05-09 14:21:00,
2013-05-09 10:26:00,54.0,54.0,30.15,SE,135,12.0,12.0,100,0.20,,,0.70,Weather View 32 v70,2013-05-09 14:26:00,
2013-05-09 10:31:00,53.0,53.0,30.15,SE,135,10.0,15.0,100,0.20,,,0.71,Weather View 32 v70,2013-05-09 14:31:00,
2013-05-09 10:36:00,54.0,54.0,30.14,SSE,157,13.0,15.0,100,0.19,,,0.72,Weather View 32 v70,2013-05-09 14:36:00,
2013-05-09 10:41:00,54.0,54.0,30.14,SE,135,9.0,16.0,100,0.15,,,0.73,Weather View 32 v70,2013-05-09 14:41:00,
2013-05-09 10:46:00,54.0,54.0,30.14,SE,135,7.0,16.0,100,0.11,,,0.74,Weather View 32 v70,2013-05-09 14:46:00,
2013-05-09 10:51:00,54.0,54.0,30.15,ESE,112,7.0,16.0,100,0.07,,,0.74,Weather View 32 v70,2013-05-09 14:51:00,
2013-05-09 10:56:00,54.0,54.0,30.15,SSE,157,9.0,16.0,100,0.05,,,0.74,Weather View 32 v70,2013-05-09 14:56:00,
2013-05-09 11:01:00,54.0,54.0,30.16,South,180,10.0,16.0,100,0.05,,,0.74,Weather View 32 v70,2013-05-09 15:01:00,
2013-05-09 11:06:00,54.0,54.0,30.17,South,180,7.0,16.0,100,0.04,,,0.74,Weather View 32 v70,2013-05-09 15:06:00,
2013-05-09 11:11:00,54.0,54.0,30.17,SE,135,7.0,16.0,100,0.04,,,0.74,Weather View 32 v70,2013-05-09 15:11:00,
2013-05-09 11:16:00,55.0,55.0,30.16,South,180,6.0,16.0,100,0.04,,,0.74,Weather View 32 v70,2013-05-09 15:16:00,
2013-05-09 11:21:00,55.0,55.0,30.17,SW,225,7.0,16.0,100,0.04,,,0.74,Weather View 32 v70,2013-05-09 15:21:00,
2013-05-09 11:26:00,55.0,55.0,30.17,SE,135,6.0,16.0,100,0.04,,,0.74,Weather View 32 v70,2013-05-09 15:26:00,
2013-05-09 11:31:00,55.0,55.0,30.17,SSW,202,2.0,16.0,100,0.03,,,0.74,Weather View 32 v70,2013-05-09 15:31:00,
2013-05-09 11:36:00,56.0,56.0,30.18,SE,135,2.0,16.0,100,0.02,,,0.74,Weather View 32 v70,2013-05-09 15:36:00,
2013-05-09 11:41:00,56.0,56.0,30.18,SSE,157,7.0,15.0,100,0.02,,,0.74,Weather View 32 v70,2013-05-09 15:41:00,
2013-05-09 11:46:00,55.0,55.0,30.18,SSW,202,5.0,15.0,100,0.00,,,0.74,Weather View 32 v70,2013-05-09 15:46:00,
2013-05-09 11:51:00,56.0,56.0,30.17,SSW,202,5.0,15.0,100,0.00,,,0.74,Weather View 32 v70,2013-05-09 15:51:00,
2013-05-09 11:56:00,55.0,55.0,30.17,SSW,202,3.0,15.0,100,0.00,,,0.74,Weather View 32 v70,2013-05-09 15:56:00,
2013-05-09 12:01:00,56.0,56.0,30.17,SE,135,7.0,12.0,100,0.00,,,0.74,Weather View 32 v70,2013-05-09 16:01:00,
2013-05-09 12:06:00,56.0,56.0,30.18,South,180,6.0,10.0,100,0.00,,,0.74,Weather View 32 v70,2013-05-09 16:06:00,
2013-05-09 12:11:00,56.0,56.0,30.18,SSW,202,5.0,10.0,100,0.00,,,0.74,Weather View 32 v70,2013-05-09 16:11:00,
2013-05-09 12:16:00,56.0,56.0,30.18,SSW,202,7.0,10.0,100,0.00,,,0.74,Weather View 32 v70,2013-05-09 16:16:00,
2013-05-09 12:21:00,56.0,56.0,30.17,South,180,5.0,10.0,100,0.00,,,0.74,Weather View 32 v70,2013-05-09 16:21:00,
2013-05-09 12:26:00,56.0,56.0,30.17,SSE,157,4.0,10.0,100,0.00,,,0.74,Weather View 32 v70,2013-05-09 16:26:00,
2013-05-09 12:31:00,56.0,56.0,30.17,SE,135,5.0,10.0,100,0.00,,,0.74,Weather View 32 v70,2013-05-09 16:31:00,
2013-05-09 12:36:00,56.0,56.0,30.17,SSE,157,5.0,10.0,100,0.00,,,0.74,Weather View 32 v70,2013-05-09 16:36:00,
2013-05-09 12:41:00,56.0,56.0,30.16,SSE,157,6.0,10.0,100,0.00,,,0.74,Weather View 32 v70,2013-05-09 16:41:00,
2013-05-09 12:46:00,56.0,56.0,30.16,SE,135,7.0,10.0,100,0.00,,,0.74,Weather View 32 v70,2013-05-09 16:46:00,
2013-05-09 12:51:00,56.0,56.0,30.16,SE,135,7.0,10.0,100,0.00,,,0.74,Weather View 32 v70,2013-05-09 16:51:00,
2013-05-09 12:56:00,56.0,56.0,30.16,ESE,112,7.0,10.0,100,0.00,,,0.74,Weather View 32 v70,2013-05-09 16:56:00,
2013-05-09 13:01:00,56.0,56.0,30.16,SE,135,7.0,10.0,100,0.00,,,0.74,Weather View 32 v70,2013-05-09 17:01:00,
2013-05-09 13:06:00,56.0,55.7,30.16,SE,135,7.0,10.0,99,0.00,,,0.74,Weather View 32 v70,2013-05-09 17:06:00,
2013-05-09 13:11:00,56.0,56.0,30.16,SE,135,9.0,11.0,100,0.00,,,0.74,Weather View 32 v70,2013-05-09 17:11:00,
2013-05-09 13:16:00,56.0,56.0,30.16,ESE,112,4.0,11.0,100,0.00,,,0.74,Weather View 32 v70,2013-05-09 17:16:00,
2013-05-09 13:21:00,56.0,56.0,30.15,SW,225,4.0,11.0,100,0.00,,,0.74,Weather View 32 v70,2013-05-09 17:21:00,
2013-05-09 13:26:00,56.0,56.0,30.15,SSE,157,5.0,11.0,100,0.00,,,0.74,Weather View 32 v70,2013-05-09 17:26:00,
2013-05-09 13:31:00,57.0,57.0,30.15,South,180,5.0,11.0,100,0.00,,,0.74,Weather View 32 v70,2013-05-09 17:31:00,
2013-05-09 13:36:00,57.0,56.7,30.15,SE,135,6.0,11.0,99,0.00,,,0.74,Weather View 32 v70,2013-05-09 17:36:00,
2013-05-09 13:41:00,57.0,56.7,30.16,SSE,157,7.0,11.0,99,0.00,,,0.74,Weather View 32 v70,2013-05-09 17:41:00,
2013-05-09 13:46:00,57.0,56.7,30.15,SSE,157,3.0,11.0,99,0.00,,,0.74,Weather View 32 v70,2013-05-09 17:46:00,
2013-05-09 13:51:00,57.0,56.7,30.15,SE,135,6.0,11.0,99,0.00,,,0.74,Weather View 32 v70,2013-05-09 17:51:00,
2013-05-09 13:56:00,57.0,56.7,30.15,SSE,157,7.0,11.0,99,0.00,,,0.74,Weather View 32 v70,2013-05-09 17:56:00,
2013-05-09 14:01:00,57.0,56.7,30.15,SSE,157,6.0,11.0,99,0.00,,,0.74,Weather View 32 v70,2013-05-09 18:01:00,
2013-05-09 14:06:00,57.0,56.7,30.15,SSE,157,2.0,11.0,99,0.00,,,0.74,Weather View 32 v70,2013-05-09 18:06:00,
2013-05-09 14:11:00,57.0,56.7,30.14,SSE,157,6.0,10.0,99,0.00,,,0.74,Weather View 32 v70,2013-05-09 18:11:00,
2013-05-09 14:16:00,57.0,56.7,30.14,SSW,202,1.0,9.0,99,0.00,,,0.74,Weather View 32 v70,2013-05-09 18:16:00,
2013-05-09 14:21:00,58.0,57.7,30.14,West,270,2.0,9.0,99,0.00,,,0.74,Weather View 32 v70,2013-05-09 18:21:00,
2013-05-09 14:26:00,58.0,57.4,30.14,SW,225,6.0,9.0,98,0.00,,,0.74,Weather View 32 v70,2013-05-09 18:26:00,
2013-05-09 14:31:00,59.0,58.1,30.14,SE,135,2.0,9.0,97,0.00,,,0.74,Weather View 32 v70,2013-05-09 18:31:00,
2013-05-09 14:36:00,58.0,56.9,30.15,SE,135,5.0,9.0,96,0.00,,,0.74,Weather View 32 v70,2013-05-09 18:36:00,
2013-05-09 14:41:00,58.0,57.2,30.15,SE,135,6.0,9.0,97,0.00,,,0.74,Weather View 32 v70,2013-05-09 18:41:00,
2013-05-09 14:46:00,58.0,57.2,30.14,SE,135,3.0,9.0,97,0.00,,,0.74,Weather View 32 v70,2013-05-09 18:46:00,
2013-05-09 14:51:00,58.0,57.2,30.14,SE,135,9.0,9.0,97,0.00,,,0.74,Weather View 32 v70,2013-05-09 18:51:00,
2013-05-09 14:56:00,58.0,57.4,30.13,SE,135,2.0,9.0,98,0.00,,,0.74,Weather View 32 v70,2013-05-09 18:56:00,
2013-05-09 15:01:00,58.0,57.4,30.14,SE,135,6.0,9.0,98,0.00,,,0.74,Weather View 32 v70,2013-05-09 19:01:00,
2013-05-09 15:06:00,58.0,57.4,30.14,SSE,157,2.0,9.0,98,0.00,,,0.74,Weather View 32 v70,2013-05-09 19:06:00,
2013-05-09 15:11:00,58.0,57.4,30.14,ESE,112,7.0,9.0,98,0.00,,,0.74,Weather View 32 v70,2013-05-09 19:11:00,
2013-05-09 15:16:00,58.0,57.4,30.14,SE,135,6.0,9.0,98,0.00,,,0.74,Weather View 32 v70,2013-05-09 19:16:00,
2013-05-09 15:21:00,58.0,57.4,30.14,SE,135,4.0,9.0,98,0.00,,,0.74,Weather View 32 v70,2013-05-09 19:21:00,
2013-05-09 15:26:00,58.0,57.4,30.13,SSE,157,6.0,9.0,98,0.00,,,0.74,Weather View 32 v70,2013-05-09 19:26:00,
2013-05-09 15:31:00,58.0,57.2,30.13,SE,135,6.0,9.0,97,0.00,,,0.74,Weather View 32 v70,2013-05-09 19:31:00,
2013-05-09 15:36:00,58.0,57.4,30.12,SE,135,2.0,9.0,98,0.00,,,0.74,Weather View 32 v70,2013-05-09 19:36:00,
2013-05-09 15:41:00,58.0,57.2,30.12,SE,135,4.0,9.0,97,0.00,,,0.74,Weather View 32 v70,2013-05-09 19:41:00,
2013-05-09 15:46:00,58.0,57.4,30.13,SE,135,6.0,10.0,98,0.00,,,0.74,Weather View 32 v70,2013-05-09 19:46:00,
2013-05-09 15:51:00,58.0,57.2,30.13,South,180,6.0,10.0,97,0.00,,,0.74,Weather View 32 v70,2013-05-09 19:51:00,
2013-05-09 15:56:00,58.0,57.4,30.12,SSW,202,5.0,10.0,98,0.00,,,0.74,Weather View 32 v70,2013-05-09 19:56:00,
2013-05-09 16:01:00,58.0,57.4,30.12,South,180,3.0,10.0,98,0.00,,,0.74,Weather View 32 v70,2013-05-09 20:01:00,
2013-05-09 16:06:00,58.0,57.4,30.12,SSW,202,1.0,10.0,98,0.00,,,0.74,Weather View 32 v70,2013-05-09 20:06:00,
2013-05-09 16:11:00,58.0,57.2,30.11,South,180,5.0,10.0,97,0.00,,,0.74,Weather View 32 v70,2013-05-09 20:11:00,
2013-05-09 16:16:00,58.0,57.2,30.11,SSW,202,3.0,10.0,97,0.00,,,0.74,Weather View 32 v70,2013-05-09 20:16:00,
2013-05-09 16:21:00,58.0,57.2,30.11,SE,135,6.0,10.0,97,0.00,,,0.74,Weather View 32 v70,2013-05-09 20:21:00,
2013-05-09 16:30:00,57.0,56.2,30.11,SE,135,6.0,10.0,97,0.00,,,0.74,Weather View 32 v70,2013-05-09 20:30:00,
2013-05-09 16:35:00,57.0,56.2,30.10,SSE,157,3.0,10.0,97,0.00,,,0.74,Weather View 32 v70,2013-05-09 20:35:00,
2013-05-09 16:41:00,57.0,56.2,30.08,SE,135,7.0,10.0,97,0.00,,,0.74,Weather View 32 v70,2013-05-09 20:41:00,
2013-05-09 16:46:00,57.0,55.9,30.08,SE,135,4.0,9.0,96,0.00,,,0.74,Weather View 32 v70,2013-05-09 20:46:00,
2013-05-09 16:51:00,57.0,56.4,30.10,SE,135,5.0,10.0,98,0.00,,,0.74,Weather View 32 v70,2013-05-09 20:51:00,
2013-05-09 16:56:00,56.0,55.4,30.10,SE,135,6.0,10.0,98,0.00,,,0.74,Weather View 32 v70,2013-05-09 20:56:00,
2013-05-09 17:01:00,56.0,55.4,30.10,SSE,157,6.0,10.0,98,0.00,,,0.74,Weather View 32 v70,2013-05-09 21:01:00,
2013-05-09 17:06:00,56.0,55.7,30.09,SSE,157,5.0,10.0,99,0.00,,,0.74,Weather View 32 v70,2013-05-09 21:06:00,
2013-05-09 17:11:00,55.0,54.7,30.09,SSE,157,3.0,10.0,99,0.00,,,0.74,Weather View 32 v70,2013-05-09 21:11:00,
2013-05-09 17:16:00,56.0,55.7,30.08,East,90,2.0,10.0,99,0.00,,,0.74,Weather View 32 v70,2013-05-09 21:16:00,
2013-05-09 17:21:00,56.0,55.7,30.08,ESE,112,4.0,10.0,99,0.00,,,0.74,Weather View 32 v70,2013-05-09 21:21:00,
2013-05-09 17:26:00,56.0,55.7,30.07,SE,135,2.0,10.0,99,0.00,,,0.74,Weather View 32 v70,2013-05-09 21:26:00,
2013-05-09 17:31:00,56.0,55.7,30.07,ESE,112,7.0,10.0,99,0.00,,,0.74,Weather View 32 v70,2013-05-09 21:31:00,
2013-05-09 17:36:00,57.0,56.7,30.09,SSW,202,1.0,10.0,99,0.00,,,0.74,Weather View 32 v70,2013-05-09 21:36:00,
2013-05-09 17:41:00,57.0,56.4,30.09,SE,135,4.0,10.0,98,0.00,,,0.74,Weather View 32 v70,2013-05-09 21:41:00,
2013-05-09 17:46:00,57.0,56.4,30.09,SE,135,1.0,10.0,98,0.00,,,0.74,Weather View 32 v70,2013-05-09 21:46:00,
2013-05-09 17:51:00,56.0,55.4,30.09,SSE,157,7.0,10.0,98,0.00,,,0.74,Weather View 32 v70,2013-05-09 21:51:00,
2013-05-09 17:56:00,57.0,56.4,30.09,South,180,5.0,9.0,98,0.00,,,0.74,Weather View 32 v70,2013-05-09 21:56:00,
2013-05-09 18:01:00,57.0,56.4,30.09,SSE,157,5.0,9.0,98,0.00,,,0.74,Weather View 32 v70,2013-05-09 22:01:00,
2013-05-09 18:06:00,57.0,56.4,30.09,ESE,112,6.0,8.0,98,0.00,,,0.74,Weather View 32 v70,2013-05-09 22:06:00,
2013-05-09 18:11:00,57.0,56.4,30.09,SSE,157,5.0,8.0,98,0.00,,,0.74,Weather View 32 v70,2013-05-09 22:11:00,
2013-05-09 18:16:00,57.0,56.4,30.09,SSE,157,6.0,8.0,98,0.00,,,0.74,Weather View 32 v70,2013-05-09 22:16:00,
2013-05-09 18:21:00,57.0,56.4,30.08,South,180,5.0,8.0,98,0.00,,,0.74,Weather View 32 v70,2013-05-09 22:21:00,
2013-05-09 18:26:00,57.0,56.4,30.08,SSE,157,6.0,8.0,98,0.00,,,0.74,Weather View 32 v70,2013-05-09 22:26:00,
2013-05-09 18:31:00,56.0,55.4,30.08,SSE,157,6.0,8.0,98,0.00,,,0.74,Weather View 32 v70,2013-05-09 22:31:00,
2013-05-09 18:36:00,56.0,55.4,30.07,South,180,5.0,8.0,98,0.00,,,0.74,Weather View 32 v70,2013-05-09 22:36:00,
2013-05-09 18:41:00,56.0,55.7,30.08,SSE,157,5.0,8.0,99,0.00,,,0.74,Weather View 32 v70,2013-05-09 22:41:00,
2013-05-09 18:46:00,56.0,55.7,30.07,South,180,5.0,8.0,99,0.00,,,0.74,Weather View 32 v70,2013-05-09 22:46:00,
2013-05-09 18:51:00,56.0,55.7,30.08,SSE,157,5.0,8.0,99,0.00,,,0.74,Weather View 32 v70,2013-05-09 22:51:00,
2013-05-09 18:56:00,56.0,55.7,30.07,SSE,157,5.0,8.0,99,0.00,,,0.74,Weather View 32 v70,2013-05-09 22:56:00,
2013-05-09 19:01:00,55.0,55.0,30.07,SE,135,4.0,9.0,100,0.00,,,0.74,Weather View 32 v70,2013-05-09 23:01:00,
2013-05-09 19:06:00,55.0,55.0,30.07,SE,135,7.0,11.0,100,0.00,,,0.74,Weather View 32 v70,2013-05-09 23:06:00,
2013-05-09 19:11:00,54.0,54.0,30.07,SE,135,6.0,11.0,100,0.00,,,0.74,Weather View 32 v70,2013-05-09 23:11:00,
2013-05-09 19:16:00,54.0,54.0,30.06,SSE,157,6.0,11.0,100,0.00,,,0.74,Weather View 32 v70,2013-05-09 23:16:00,
2013-05-09 19:21:00,53.0,53.0,30.06,SE,135,3.0,11.0,100,0.00,,,0.74,Weather View 32 v70,2013-05-09 23:21:00,
2013-05-09 19:26:00,53.0,53.0,30.06,SSE,157,5.0,11.0,100,0.00,,,0.74,Weather View 32 v70,2013-05-09 23:26:00,
2013-05-09 19:31:00,53.0,53.0,30.06,SSE,157,3.0,11.0,100,0.00,,,0.74,Weather View 32 v70,2013-05-09 23:31:00,
2013-05-09 19:36:00,53.0,53.0,30.06,ESE,112,3.0,11.0,100,0.00,,,0.74,Weather View 32 v70,2013-05-09 23:36:00,
2013-05-09 19:41:00,53.0,53.0,30.06,ESE,112,4.0,11.0,100,0.00,,,0.74,Weather View 32 v70,2013-05-09 23:41:00,
2013-05-09 19:46:00,53.0,53.0,30.06,ESE,112,4.0,11.0,100,0.00,,,0.74,Weather View 32 v70,2013-05-09 23:46:00,
2013-05-09 19:51:00,53.0,53.0,30.06,SE,135,3.0,11.0,100,0.00,,,0.74,Weather View 32 v70,2013-05-09 23:51:00,
2013-05-09 19:56:00,53.0,53.0,30.06,SE,135,2.0,11.0,100,0.00,,,0.74,Weather View 32 v70,2013-05-09 23:56:00,
2013-05-09 20:01:00,53.0,53.0,30.05,East,90,5.0,11.0,100,0.00,,,0.74,Weather View 32 v70,2013-05-10 00:01:00,
2013-05-09 20:06:00,52.0,52.0,30.05,SE,135,6.0,10.0,100,0.00,,,0.74,Weather View 32 v70,2013-05-10 00:06:00,
2013-05-09 20:11:00,52.0,52.0,30.05,SE,135,7.0,9.0,100,0.00,,,0.74,Weather View 32 v70,2013-05-10 00:11:00,
2013-05-09 20:16:00,52.0,52.0,30.05,ESE,112,7.0,9.0,100,0.00,,,0.74,Weather View 32 v70,2013-05-10 00:16:00,
2013-05-09 20:21:00,52.0,52.0,30.04,East,90,6.0,9.0,100,0.00,,,0.74,Weather View 32 v70,2013-05-10 00:21:00,
2013-05-09 20:26:00,52.0,52.0,30.05,SE,135,6.0,9.0,100,0.00,,,0.74,Weather View 32 v70,2013-05-10 00:26:00,
2013-05-09 20:31:00,52.0,52.0,30.05,SE,135,2.0,9.0,100,0.00,,,0.74,Weather View 32 v70,2013-05-10 00:31:00,
2013-05-09 20:36:00,52.0,52.0,30.04,SE,135,3.0,9.0,100,0.00,,,0.74,Weather View 32 v70,2013-05-10 00:36:00,
2013-05-09 20:41:00,52.0,52.0,30.04,SSE,157,5.0,9.0,100,0.00,,,0.74,Weather View 32 v70,2013-05-10 00:41:00,
2013-05-09 20:46:00,52.0,52.0,30.05,SE,135,3.0,9.0,100,0.00,,,0.74,Weather View 32 v70,2013-05-10 00:46:00,
2013-05-09 20:51:00,52.0,52.0,30.05,SSE,157,1.0,9.0,100,0.00,,,0.74,Weather View 32 v70,2013-05-10 00:51:00,
2013-05-09 20:56:00,52.0,52.0,30.05,SW,225,2.0,9.0,100,0.00,,,0.74,Weather View 32 v70,2013-05-10 00:56:00,
2013-05-09 21:01:00,52.0,52.0,30.03,South,180,4.0,9.0,100,0.00,,,0.74,Weather View 32 v70,2013-05-10 01:01:00,
2013-05-09 21:06:00,51.0,51.0,30.03,SSE,157,6.0,9.0,100,0.00,,,0.74,Weather View 32 v70,2013-05-10 01:06:00,
2013-05-09 21:11:00,51.0,51.0,30.06,SSW,202,2.0,9.0,100,0.00,,,0.74,Weather View 32 v70,2013-05-10 01:11:00,
2013-05-09 21:16:00,51.0,51.0,30.06,SE,135,5.0,9.0,100,0.00,,,0.74,Weather View 32 v70,2013-05-10 01:16:00,
2013-05-09 21:21:00,51.0,51.0,30.06,SE,135,6.0,9.0,100,0.00,,,0.74,Weather View 32 v70,2013-05-10 01:21:00,
2013-05-09 21:26:00,51.0,51.0,30.06,SE,135,6.0,9.0,100,0.00,,,0.74,Weather View 32 v70,2013-05-10 01:26:00,
2013-05-09 21:31:00,51.0,51.0,30.06,SE,135,3.0,9.0,100,0.00,,,0.74,Weather View 32 v70,2013-05-10 01:31:00,
2013-05-09 21:36:00,51.0,51.0,30.06,SSE,157,2.0,9.0,100,0.00,,,0.74,Weather View 32 v70,2013-05-10 01:36:00,
2013-05-09 21:41:00,51.0,51.0,30.06,SE,135,2.0,9.0,100,0.00,,,0.74,Weather View 32 v70,2013-05-10 01:41:00,
2013-05-09 21:46:00,51.0,51.0,30.06,SE,135,2.0,9.0,100,0.00,,,0.74,Weather View 32 v70,2013-05-10 01:46:00,
2013-05-09 21:51:00,51.0,51.0,30.06,SSE,157,2.0,9.0,100,0.00,,,0.74,Weather View 32 v70,2013-05-10 01:51:00,
2013-05-09 21:56:00,51.0,51.0,30.06,SE,135,2.0,8.0,100,0.00,,,0.74,Weather View 32 v70,2013-05-10 01:56:00,
2013-05-09 22:01:00,51.0,51.0,30.05,SE,135,2.0,8.0,100,0.00,,,0.74,Weather View 32 v70,2013-05-10 02:01:00,
2013-05-09 22:06:00,51.0,51.0,30.05,South,180,3.0,8.0,100,0.00,,,0.74,Weather View 32 v70,2013-05-10 02:06:00,
2013-05-09 22:11:00,51.0,51.0,30.06,South,180,4.0,8.0,100,0.00,,,0.74,Weather View 32 v70,2013-05-10 02:11:00,
2013-05-09 22:16:00,51.0,51.0,30.07,SSE,157,5.0,8.0,100,0.00,,,0.74,Weather View 32 v70,2013-05-10 02:16:00,
2013-05-09 22:21:00,51.0,51.0,30.05,SSE,157,3.0,8.0,100,0.00,,,0.74,Weather View 32 v70,2013-05-10 02:21:00,
2013-05-09 22:26:00,51.0,51.0,30.05,SSE,157,2.0,7.0,100,0.00,,,0.74,Weather View 32 v70,2013-05-10 02:26:00,
2013-05-09 22:31:00,51.0,51.0,30.05,South,180,1.0,7.0,100,0.00,,,0.74,Weather View 32 v70,2013-05-10 02:31:00,
2013-05-09 22:36:00,51.0,51.0,30.05,South,180,0.0,6.0,100,0.00,,,0.74,Weather View 32 v70,2013-05-10 02:36:00,
2013-05-09 22:41:00,51.0,51.0,30.05,South,180,0.0,6.0,100,0.00,,,0.74,Weather View 32 v70,2013-05-10 02:41:00,
2013-05-09 22:46:00,51.0,51.0,30.05,South,180,0.0,6.0,100,0.00,,,0.74,Weather View 32 v70,2013-05-10 02:46:00,
2013-05-09 22:51:00,51.0,51.0,30.05,South,180,0.0,6.0,100,0.00,,,0.74,Weather View 32 v70,2013-05-10 02:51:00,
2013-05-09 22:56:00,51.0,51.0,30.05,South,180,1.0,6.0,100,0.00,,,0.74,Weather View 32 v70,2013-05-10 02:56:00,
2013-05-09 23:01:00,51.0,51.0,30.04,ENE,67,3.0,6.0,100,0.00,,,0.74,Weather View 32 v70,2013-05-10 03:01:00,
2013-05-09 23:06:00,51.0,51.0,30.04,ENE,67,0.0,6.0,100,0.00,,,0.74,Weather View 32 v70,2013-05-10 03:06:00,
2013-05-09 23:11:00,51.0,51.0,30.04,ENE,67,0.0,6.0,100,0.00,,,0.74,Weather View 32 v70,2013-05-10 03:11:00,
2013-05-09 23:16:00,51.0,51.0,30.04,ENE,67,0.0,6.0,100,0.00,,,0.74,Weather View 32 v70,2013-05-10 03:16:00,
2013-05-09 23:21:00,51.0,51.0,30.05,SSW,202,3.0,6.0,100,0.00,,,0.74,Weather View 32 v70,2013-05-10 03:21:00,
2013-05-09 23:26:00,51.0,51.0,30.04,SW,225,3.0,5.0,100,0.00,,,0.74,Weather View 32 v70,2013-05-10 03:26:00,
2013-05-09 23:31:00,52.0,52.0,30.05,West,270,1.0,6.0,100,0.00,,,0.74,Weather View 32 v70,2013-05-10 03:31:00,
2013-05-09 23:36:00,52.0,52.0,30.04,South,180,4.0,6.0,100,0.00,,,0.74,Weather View 32 v70,2013-05-10 03:36:00,
2013-05-09 23:41:00,52.0,52.0,30.04,SW,225,2.0,7.0,100,0.00,,,0.74,Weather View 32 v70,2013-05-10 03:41:00,
2013-05-09 23:46:00,52.0,52.0,30.05,SSW,202,4.0,7.0,100,0.00,,,0.74,Weather View 32 v70,2013-05-10 03:46:00,
2013-05-09 23:51:00,52.0,52.0,30.05,South,180,6.0,7.0,100,0.00,,,0.74,Weather View 32 v70,2013-05-10 03:51:00,
2013-05-09 23:56:00,52.0,52.0,30.05,South,180,3.0,7.0,100,0.00,,,0.74,Weather View 32 v70,2013-05-10 03:56:00,